User: anonymous   Login
Location: Unspecified
(0.0000°N, 0.0000°E)
Time: 02:57:20
(UTC+00:00)
Language:

STARLINK-32852 - Orbit

View from above orbital plane
View from above orbital plane
View from above satellite
View from above satellite

Ground track
Ground track

The orbit is defined by the following mean orbital elements,

1 62824U          26145.47689125 +.00000000 +00000-0 +65811-3 0 00009
2 62824  53.1585 313.0110 0001095  76.7214 283.3908 15.30212743    03
Epoch (UTC): 25 May 2026 11:26:43
Eccentricity: 0.0001095
inclination: 53.1585°
perigee height: 474 km
apogee height: 476 km
right ascension of ascending node: 313.0110°
argument of perigee: 76.7214°
revolutions per day: 15.30212743
mean anomaly at epoch: 283.3908°

The dashed part of the orbit path shows where the satellite is in the earth's shadow,  

DLR